Regional Weather Roundup
Issued by NWS

Home | Current Version | Previous Version | Graphics & Text | Print | Product List | Glossary On
Versions: 1 2 3 4 5 6 7 8 9 10 11 12 13 14 15 16 17 18 19 20 21 22 23 24 25 26 27 28 29 30 31 32 33 34 35 36 37 38 39 40 41 42 43 44 45 46 47 48 49 50
867
ASUS44 KJAN 261210
RWRMS

MISSISSIPPI HOURLY WEATHER ROUNDUP
NATIONAL WEATHER SERVICE JACKSON MS
600 AM CST WED NOV 26 2014

NOTE: "FAIR: INDICATES FEW OR NO CLOUDS BELOW 12,000 FEET WITH NO
SIGNIFICANT WEATHER AND/OR OBSTRUCTIONS TO VISIBILITY.

MSZ001>002-007>008-010>013-018>021-025>028-034>036-261300-
NORTHWEST MISSISSIPPI

CITY           SKY/WX    TMP DP  RH WIND       PRES   REMARKS
CLARKSDALE     FAIR      32  30  93 CALM      30.16R
CLEVELAND      FAIR      36  32  85 SE6       30.15R WCI  31
GREENWOOD      CLEAR     27  25  92 CALM      30.17R
6HR MIN TEMP:  26; 6HR MAX TEMP:  29;

GREENVILLE     PTCLDY    37  29  72 SE8       30.15R WCI  31
6HR MIN TEMP:  33; 6HR MAX TEMP:  37;

GRENADA        FAIR      27  27 100 CALM      30.18R
OLIVE BRANCH   CLEAR     28  28 100 CALM      30.14S
OXFORD         FAIR      27  25  93 SE6       30.16S WCI  20
TUNICA         FAIR      32  30  93 SE6       30.15S WCI  26
$$

MSZ003>006-009-014>017-022>024-029>033-037>039-261300-
NORTHEAST MISSISSIPPI

CITY           SKY/WX    TMP DP  RH WIND       PRES   REMARKS
COLUMBUS AFB   CLEAR     26  24  93 E2        30.16F
6HR MIN TEMP:  25; 6HR MAX TEMP:  35;

CORINTH        FAIR      25  23  93 CALM      30.15S
GOLDN TRIANGLE CLEAR     25  21  86 CALM      30.15R
STARKVILLE       N/A     27  25  93 CALM      30.18R
TUPELO         CLEAR     27  23  85 CALM      30.16R
6HR MIN TEMP:  27; 6HR MAX TEMP:  33;

$$

MSZ040-058-261300-
CENTRAL MISSISSIPPI

CITY           SKY/WX    TMP DP  RH WIND       PRES   REMARKS
JACKSON INTL   PTCLDY    29  26  89 CALM      30.20R
6HR MIN TEMP:  27; 6HR MAX TEMP:  32;

JACKSON HAWKNS PTCLDY    32  29  88 CALM      30.20R
6HR MIN TEMP:  29; 6HR MAX TEMP:  33;

MERIDIAN KEY   CLEAR     27  25  92 CALM      30.19S
6HR MIN TEMP:  27; 6HR MAX TEMP:  36;

MERIDIAN NAS   CLEAR     29  26  89 CALM      30.19S
6HR MIN TEMP:  28; 6HR MAX TEMP:  37;

RAYMOND        FAIR      28  25  86 MISG      30.20R
VICKSBURG      CLEAR     30  28  92 CALM      30.20R
6HR MIN TEMP:  28; 6HR MAX TEMP:  34;

$$

MSZ059>079-261300-
SOUTH MISSISSIPPI

CITY           SKY/WX    TMP DP  RH WIND       PRES   REMARKS
BROOKHAVEN     FAIR      30  30 100 CALM      30.20S
HATTIESBURG    CLEAR     30  28  92 CALM      30.23R
6HR MIN TEMP:  30; 6HR MAX TEMP:  41;

MCCOMB         CLEAR     31  27  85 CALM      30.21R
6HR MIN TEMP:  30; 6HR MAX TEMP:  35;

NATCHEZ        CLEAR     32  28  86 CALM      30.20R
6HR MIN TEMP:  30; 6HR MAX TEMP:  34;

PINE BELT      CLEAR     30  27  86 CALM      30.21R
6HR MIN TEMP:  28; 6HR MAX TEMP:  37;

$$

MSZ080>082-261300-
COASTAL MISSISSIPPI

CITY           SKY/WX    TMP DP  RH WIND       PRES   REMARKS
BILOXI         CLEAR     39  31  72 N5        30.23R
6HR MIN TEMP:  38; 6HR MAX TEMP:  47;

PASCAGOULA     CLEAR     31  28  89 CALM      30.23R
6HR MIN TEMP:  30; 6HR MAX TEMP:  48;

GULFPORT       CLEAR     34  31  88 CALM      30.23R
6HR MIN TEMP:  34; 6HR MAX TEMP:  44;

$$



USA.gov is the U.S. government's official web portal to all federal, state and local government web resources and services.